Temp
12 12 12 12 12 12 12 12 12 12 13 13 13 13 13 14 14 14 15 17 17 18 19 20 21 21 21 18 18 17 17 18 19 19 20 19 21 19 19 20 19 18 19 18 18
12 12 12 12 12 12 12 12 12 12 12 12 12 13 13 13 13 14 15 16 17 18 18 18 17 18 17 17 17 17 17 19 19 18 20 19 20 19 21 20 20 20 18 18 17
11 12 12 12 12 12 12 12 12 12 12 12 12 12 13 13 14 14 16 17 17 17 17 17 18 18 18 18 17 16 18 18 19 19 19 19 20 19 20 21 21 21 20 17 17
11 11 12 12 11 11 12 12 12 12 12 12 12 12 13 13 13 15 15 16 16 16 16 17 17 17 16 18 17 18 18 18 19 18 19 19 19 20 20 21 19 19 18 18 17
10 11 11 12 12 12 12 12 12 12 12 12 12 12 12 12 13 15 15 16 15 15 16 15 16 15 16 16 16 17 17 17 17 18 18 18 18 18 18 19 18 18 18 17 17
10 10 10 11 12 12 12 12 12 12 12 12 11 12 12 11 14 14 14 15 15 15 15 15 15 15 15 16 16 16 16 16 16 17 17 18 17 18 18 17 18 17 16 16 16
10 10 10 10 11 11 12 12 12 12 12 12 11 11 11 11 14 13 14 15 14 15 15 15 16 16 14 15 15 14 16 15 15 17 17 16 16 16 17 17 17 16 15 15 16
10 10 10 10 11 11 11 12 12 12 12 11 11 11 10 13 13 13 13 14 14 15 15 15 16 14 15 13 14 14 13 14 15 15 16 17 16 17 15 16 16 15 14 14 15
9 10 10 10 10 11 11 11 12 11 11 11 10 11 10 12 12 14 13 14 14 14 15 15 16 14 14 13 14 14 13 13 14 14 16 15 15 16 14 14 15 14 14 14 15
9 9 10 10 10 10 11 11 12 10 10 10 10 10 10 10 12 13 14 14 13 12 14 14 14 13 12 13 12 13 13 13 14 15 14 14 13 14 14 14 14 13 13 13 14
8 9 10 10 10 10 10 10 9 10 9 11 10 11 10 12 12 12 13 12 12 13 14 13 13 14 14 13 13 13 13 13 13 14 14 13 13 13 13 13 13 13 14 15 15
7 8 9 9 9 10 10 10 11 12 10 10 10 11 11 12 11 11 13 12 12 13 12 13 14 14 14 13 13 13 13 12 13 14 14 13 13 13 13 14 15 14 15 15 14
7 7 8 8 9 9 9 10 12 12 11 9 10 11 11 11 11 11 12 11 12 12 12 13 13 13 13 12 12 12 13 13 14 13 13 13 14 14 14 13 13 13 13 13 13
7 7 7 8 7 8 8 9 10 11 10 10 9 10 10 11 11 12 13 13 12 12 12 12 13 12 12 13 13 12 12 13 13 13 14 13 12 15 15 15 15 15 14 13 12
6 7 7 7 7 8 9 9 10 10 10 10 9 11 10 12 11 10 12 11 11 11 12 12 11 12 12 13 13 14 12 12 12 12 12 14 13 12 12 14 14 15 15 13 12
6 7 7 6 7 6 9 9 10 9 10 9 9 9 10 10 10 9 11 11 11 11 11 11 11 12 12 12 13 11 12 11 12 13 12 13 13 12 12 14 14 14 14 12 11
6 7 7 6 6 7 7 8 9 9 8 9 9 10 10 10 10 10 11 11 11 11 11 10 10 11 11 11 11 13 12 11 12 12 11 10 11 14 13 13 15 15 13 11 9
6 6 6 6 6 6 7 8 9 9 8 9 10 10 10 10 10 10 11 11 12 11 11 11 10 11 10 12 12 12 13 10 10 10 11 10 11 12 13 14 13 13 10 9 8
6 6 6 6 6 6 7 8 9 10 8 9 10 9 10 10 11 11 11 11 12 11 11 11 11 11 10 11 13 11 12 12 10 4 8 10 10 12 11 12 11 10 10 8 7
5 5 5 5 6 5 4 7 7 8 8 10 10 10 9 10 10 11 10 12 11 11 11 10 10 10 11 12 12 11 12 11 10 11 11 11 11 13 12 11 10 9 9 7 6
5 3 5 5 5 4 5 5 5 7 9 9 9 9 11 9 10 10 10 11 12 11 11 10 11 9 10 10 12 11 11 11 12 10 9 8 11 10 13 11 10 9 8 6 5
3 3 4 5 4 4 6 5 5 6 7 8 8 8 8 9 9 10 9 11 12 12 10 10 10 8 10 10 10 13 12 12 12 9 9 10 13 13 12 10 10 8 6 4 4
3 2 4 5 4 4 4 5 6 6 8 7 8 9 8 8 9 9 9 10 10 11 10 11 9 9 9 10 9 10 10 12 11 9 9 11 12 10 10 9 8 7 5 4 3
2 2 1 4 2 5 4 5 6 6 8 8 7 8 9 9 9 9 8 9 9 11 11 12 9 10 11 12 9 9 10 10 11 11 11 11 12 12 8 8 6 5 4 3 2
1 3 1 2 4 5 6 7 6 7 7 7 7 8 9 8 8 8 10 8 8 10 10 10 9 10 10 10 9 10 11 10 10 12 11 12 12 13 11 8 7 4 3 2 1
3 3 2 3 4 5 6 6 7 6 7 8 7 7 7 8 10 9 9 8 9 8 9 9 9 8 9 10 8 10 9 9 10 11 11 12 12 11 6 4 4 4 3 2 0
2 1 2 5 4 5 6 6 8 6 7 8 7 7 7 9 9 9 10 9 8 8 9 8 9 8 9 9 8 8 9 10 10 11 11 10 12 8 4 5 5 3 2 1 -1
Height
799 801 804 808 811 814 817 819 821 823 825 827 828 829 831 833 833 834 833 833 834 834 833 833 833 831 830 834 836 840 859 869 864 863 857 851 850 848 848 848 850 851 851 851 850
795 799 800 805 809 811 815 817 820 822 824 826 828 830 831 833 834 832 831 831 833 834 834 834 836 834 839 840 841 848 863 860 854 855 855 852 852 852 851 853 852 852 851 850 850
791 795 797 801 806 809 811 815 818 821 823 824 827 829 831 833 834 828 827 829 832 833 834 835 836 836 842 842 847 852 859 853 852 851 851 853 852 851 853 855 853 853 851 851 851
788 791 795 798 802 805 809 812 816 819 821 823 825 828 831 833 841 826 826 827 828 831 834 834 836 841 847 848 847 853 851 851 849 851 851 853 852 853 853 851 849 850 851 851 851
784 787 792 793 800 803 807 810 813 817 820 821 824 827 830 833 830 826 826 824 825 829 832 834 837 843 848 849 848 852 851 850 850 850 850 851 853 855 854 847 849 849 849 850 851
780 783 788 792 797 800 804 807 810 814 819 819 824 826 830 833 827 826 826 826 826 829 831 833 836 838 845 847 849 850 851 853 852 850 850 851 852 852 851 849 849 849 851 850 849
776 780 784 788 793 796 801 805 807 813 816 819 823 825 828 826 825 825 826 826 827 829 831 833 834 837 843 848 848 851 855 856 855 851 851 850 855 854 849 848 848 851 851 850 848
772 776 780 785 789 793 797 802 806 810 813 819 822 826 826 821 823 824 825 825 828 829 832 833 834 838 842 847 851 855 860 866 854 852 850 850 858 848 850 849 851 850 848 847 843
769 773 776 780 785 791 795 800 805 809 813 818 822 824 825 820 820 822 825 824 827 830 833 834 835 840 845 852 858 856 864 865 859 851 849 854 860 848 849 851 852 850 848 845 839
766 772 773 777 781 788 793 799 805 809 811 816 819 827 821 818 816 819 823 824 826 830 834 835 836 843 847 851 862 860 860 858 858 853 855 856 860 849 849 849 849 849 847 842 835
762 763 770 772 778 784 791 798 805 808 804 804 808 810 810 813 816 818 820 822 826 830 832 834 839 836 840 844 847 853 856 858 857 850 853 853 855 853 846 848 848 843 838 833 829
758 762 764 768 773 780 786 786 786 788 799 803 802 807 809 809 817 818 820 825 827 827 834 838 832 833 835 843 846 851 856 862 855 851 850 851 847 847 843 836 834 833 828 827 828
752 758 762 764 771 775 777 780 785 788 794 799 799 806 808 810 812 814 817 822 824 826 828 832 831 831 837 844 850 852 854 854 855 854 852 852 838 836 832 832 831 827 825 826 827
748 752 758 764 773 765 772 780 785 786 794 795 797 799 804 806 811 807 812 817 824 825 831 832 828 833 838 840 843 851 851 851 854 859 859 857 858 835 832 832 828 820 822 825 826
742 748 754 762 765 761 768 778 784 790 781 783 790 792 793 802 802 808 810 816 823 822 825 825 831 831 834 834 839 841 845 852 855 861 862 854 860 838 833 833 825 819 819 823 825
737 742 751 757 761 758 764 775 782 786 769 776 779 785 795 797 801 807 810 815 820 822 825 829 830 826 827 831 835 844 848 857 853 855 856 851 854 838 834 823 821 816 818 822 824
734 739 746 746 751 757 765 770 764 758 771 771 774 776 780 788 798 800 804 810 814 822 824 834 828 825 826 835 838 838 845 858 854 856 857 853 854 822 822 817 814 810 817 822 824
731 739 744 751 757 760 761 760 742 746 758 757 762 770 775 782 792 796 798 803 804 811 816 818 829 821 824 823 829 836 835 854 863 864 852 859 838 822 811 809 811 813 819 823 825
731 738 741 744 752 752 752 737 729 730 747 754 760 771 775 778 782 786 790 792 793 802 812 813 813 814 817 818 820 836 832 832 847 890 868 849 834 818 815 813 813 817 819 823 825
727 735 738 743 746 754 754 736 739 733 736 743 751 758 768 772 776 780 789 783 791 794 802 811 816 815 812 816 819 823 824 835 842 839 840 828 829 812 809 813 816 818 818 823 826
726 735 731 741 751 755 750 751 743 736 733 740 748 760 756 767 769 779 780 781 778 787 798 806 806 822 817 815 806 819 820 823 821 838 843 852 815 804 794 803 809 813 818 823 826
724 733 732 737 753 747 738 737 744 740 739 740 744 751 759 762 769 772 778 770 771 778 791 800 807 819 809 808 808 801 804 811 812 834 835 824 793 788 792 797 801 811 818 822 825
725 734 735 736 742 741 743 747 746 742 732 740 745 745 752 761 768 769 771 769 771 777 783 790 806 816 817 813 815 810 808 801 808 822 828 815 797 793 795 799 803 809 815 820 822
725 735 738 733 734 737 745 739 732 737 731 736 744 747 748 755 756 764 772 770 772 772 778 781 796 789 784 779 800 806 801 801 800 807 794 799 787 785 800 800 807 810 814 818 820
721 720 722 730 721 724 726 730 733 730 730 733 741 740 741 756 759 764 761 774 775 769 778 783 789 785 781 788 793 786 785 794 798 784 790 779 786 771 780 794 798 805 812 815 818
715 716 715 709 716 724 716 721 725 728 724 730 733 738 743 746 741 752 758 766 767 777 775 782 782 790 783 781 791 787 788 789 781 780 781 773 772 774 786 795 800 799 805 810 815
712 711 709 701 705 716 713 717 716 727 726 723 731 739 744 736 734 739 742 746 754 763 768 777 778 784 777 778 790 791 776 769 777 770 767 776 750 777 787 784 786 793 800 805 811
Wind_Speed
18 19 22 20 20 18 16 13 12 13 12 11 9 7 5 6 6 6 5 3 3 2 4 6 8 12 7 4 5 2 4 2 5 5 2 3 2 3 1 2 3 2 1 1 1
20 18 18 22 20 20 18 16 13 11 11 12 11 7 5 4 4 10 12 5 7 1 2 6 4 8 4 4 4 4 3 6 2 3 3 1 3 2 2 3 3 2 1 3 7
18 19 17 16 23 19 18 16 14 12 11 11 12 10 6 3 3 6 4 14 13 5 1 2 3 3 3 2 3 1 4 4 2 2 2 1 2 2 2 2 1 2 1 1 4
18 19 19 18 16 18 20 18 15 13 11 10 12 12 8 7 6 2 0 9 15 15 5 3 3 4 3 4 1 4 2 3 3 4 2 0 1 1 2 2 2 3 1 1 3
21 19 20 20 20 18 16 20 17 15 13 11 11 13 9 4 6 4 7 6 10 14 11 5 4 4 6 4 3 4 3 2 2 1 2 1 4 4 4 7 2 4 5 4 6
20 21 21 20 23 19 18 16 19 16 14 12 10 13 4 7 6 6 4 4 8 15 9 7 7 4 4 3 4 3 3 1 2 2 3 3 3 4 3 1 3 3 5 5 7
14 18 23 21 23 20 19 19 17 19 16 13 12 13 3 10 6 2 3 1 9 13 8 6 9 4 6 3 1 4 2 1 4 4 5 4 6 5 4 2 1 4 4 6 10
15 14 20 24 22 22 20 18 17 19 17 14 12 10 5 9 19 5 5 8 9 9 9 7 6 5 4 4 4 3 4 3 3 4 4 7 8 4 3 4 5 8 7 6 8
17 17 16 24 24 22 20 17 17 20 17 14 11 6 5 2 7 23 7 7 10 8 7 8 5 4 2 6 2 1 3 5 4 5 3 5 4 3 5 3 6 7 8 8 11
22 21 18 20 26 22 21 17 14 15 15 14 8 3 4 5 7 13 11 9 5 7 5 5 4 4 4 5 6 6 4 1 4 3 4 4 7 11 7 2 8 6 8 11 13
22 20 22 18 24 24 21 15 8 4 9 4 8 4 2 6 6 9 15 9 6 3 6 4 5 11 9 6 4 6 3 5 2 4 2 6 6 9 8 4 7 9 10 12 11
25 23 21 23 24 27 27 9 17 3 7 9 11 3 4 7 3 3 15 6 5 8 6 3 12 7 6 5 5 4 5 4 4 5 0 7 12 7 8 8 10 10 13 10 5
28 25 23 20 22 27 28 30 22 9 4 6 5 8 4 7 6 10 15 5 4 9 12 6 4 8 6 4 6 4 6 5 5 3 3 6 13 6 3 4 5 8 8 5 5
29 27 22 19 17 27 28 30 12 8 3 7 9 6 6 5 3 8 18 5 4 12 8 7 5 9 4 10 9 8 6 5 3 2 6 2 6 3 4 6 5 11 5 5 5
28 28 26 22 7 19 19 23 17 8 10 13 9 11 10 11 11 5 10 5 7 6 7 6 8 11 9 7 9 5 6 7 5 3 4 9 6 5 5 4 8 7 4 3 4
28 28 26 24 25 4 24 29 17 8 12 10 10 16 13 8 3 5 6 6 1 4 2 4 0 5 8 4 7 8 6 4 2 3 7 9 8 4 5 10 5 6 6 6 5
30 25 24 17 11 27 23 17 9 13 9 9 8 15 24 11 9 7 17 16 10 8 11 3 4 2 4 5 3 6 8 2 4 5 6 2 8 9 3 6 7 9 6 6 6
28 23 23 27 27 20 24 12 14 9 9 5 10 17 20 13 10 9 17 16 17 3 5 9 5 12 6 7 6 13 11 4 7 5 4 2 8 5 11 5 4 3 8 7 6
24 19 20 23 25 26 6 15 11 13 11 13 14 12 12 14 9 12 17 22 19 16 8 10 8 1 2 5 11 5 14 7 4 3 2 5 6 7 8 10 7 6 7 7 6
22 13 17 21 21 16 5 7 5 3 9 14 12 13 12 20 12 19 15 17 10 19 2 6 2 2 9 3 2 7 8 4 3 6 7 5 6 8 2 4 6 7 8 6 5
17 4 5 23 19 4 4 6 2 3 6 9 8 7 12 11 18 16 12 4 19 20 12 5 3 1 5 9 17 6 8 4 5 5 5 2 6 7 14 9 12 9 7 7 5
5 4 7 29 8 4 5 7 2 7 2 4 4 5 10 17 13 15 13 13 15 16 18 8 4 4 9 1 1 16 10 10 7 4 4 3 10 2 6 8 11 9 9 6 6
5 2 12 21 8 10 1 4 5 7 11 5 3 1 4 11 10 9 11 7 8 14 15 12 5 3 2 2 2 6 9 14 8 2 9 9 7 3 4 7 6 12 9 7 6
3 3 2 7 4 15 4 5 6 8 5 6 6 3 5 6 1 11 8 3 9 14 11 18 5 11 17 7 7 7 11 14 17 10 17 13 17 11 7 10 8 8 8 7 6
2 3 5 7 8 13 16 8 17 8 5 4 2 6 7 5 6 5 9 4 3 10 11 12 8 15 17 5 5 9 13 17 19 25 15 22 19 25 14 10 15 9 8 9 7
3 2 2 2 17 20 11 16 23 7 10 12 7 10 7 9 10 13 13 6 7 5 12 7 8 8 14 15 9 6 7 14 24 23 20 26 20 6 3 7 9 14 12 10 8
3 2 3 3 14 16 14 5 20 12 3 4 8 7 4 8 9 4 8 10 9 12 14 10 8 6 12 7 6 10 23 20 13 20 20 19 28 6 7 10 14 14 11 10 8
Wind_Direction
236 233 227 224 220 214 221 229 229 235 236 233 233 232 232 234 243 300 271 212 202 269 316 345 8 17 35 54 46 115 66 135 182 158 175 349 71 7 334 60 63 34 76 252 202
233 236 231 224 223 219 222 224 226 224 230 228 228 226 224 228 263 254 244 227 223 247 32 46 21 17 44 20 20 72 96 201 186 173 137 78 49 345 83 30 25 79 89 23 166
239 235 230 225 222 221 214 214 220 220 216 217 219 215 205 159 360 253 245 240 228 245 252 87 88 68 68 42 14 130 168 175 186 149 106 84 30 353 70 40 179 152 9 48 194
236 236 231 227 227 223 220 216 215 215 211 212 206 206 185 173 220 107 252 303 231 224 199 146 80 94 124 154 144 126 213 172 150 125 98 272 286 318 178 200 70 132 354 295 243
235 233 235 225 231 226 222 217 212 213 211 206 198 191 183 203 243 271 335 332 194 187 178 143 133 131 167 163 129 142 201 164 348 340 215 221 228 211 228 261 70 297 318 359 328
236 231 231 226 226 224 226 219 210 210 211 201 201 184 208 205 255 283 339 16 181 170 169 163 172 164 120 142 158 142 145 116 3 316 291 241 258 149 256 46 52 14 346 331 314
238 236 232 226 227 220 224 223 214 210 205 202 194 189 208 220 243 309 217 122 177 181 153 158 148 130 136 136 125 106 140 56 210 212 239 158 295 225 230 27 331 1 320 309 301
240 239 234 226 224 225 221 221 216 208 203 197 188 178 235 241 239 239 138 144 168 174 171 165 129 106 112 123 48 116 78 115 267 163 267 127 261 276 133 120 2 329 313 312 295
241 240 241 227 220 217 211 209 206 203 196 184 162 157 239 302 221 225 210 156 138 140 178 160 153 135 127 125 68 338 229 185 301 211 166 169 265 232 154 35 302 284 299 300 292
237 238 237 232 216 217 203 203 194 183 170 158 144 116 242 216 196 202 199 163 117 115 96 168 186 175 140 149 200 195 208 231 195 181 175 217 245 275 276 236 268 278 274 270 273
232 240 235 235 218 206 192 164 139 194 186 196 149 203 108 140 150 182 178 137 111 140 169 197 189 204 188 181 152 151 152 208 274 256 298 242 249 259 278 207 257 265 263 270 277
225 227 238 233 222 204 193 195 196 132 164 182 176 96 135 155 115 156 164 152 170 187 131 166 216 185 171 157 177 162 161 208 284 284 193 297 290 249 251 252 237 246 266 272 298
221 221 226 232 232 205 192 199 182 160 149 179 153 195 170 169 182 182 167 160 163 180 187 198 173 160 160 150 173 194 204 199 231 349 297 316 299 280 298 227 233 248 252 279 276
220 214 217 219 229 190 202 200 209 149 251 175 180 211 149 144 237 168 173 140 200 200 150 234 203 161 174 203 171 218 181 159 176 119 265 98 286 236 240 258 252 263 249 298 9
213 211 208 201 218 183 185 189 189 110 232 169 162 162 149 177 142 221 173 64 172 168 161 205 186 170 190 186 179 211 156 179 162 173 262 241 281 278 121 224 248 262 288 50 56
209 211 205 204 214 244 175 172 159 185 215 171 150 167 157 184 143 111 131 72 119 139 26 205 257 169 169 141 160 143 92 51 109 141 248 209 196 227 188 211 247 249 140 104 67
205 200 208 202 206 234 181 163 201 206 146 172 171 173 175 170 150 172 176 181 174 171 205 136 196 183 124 113 87 163 144 208 193 204 231 235 192 238 205 185 206 249 160 115 80
201 199 200 204 202 208 200 192 214 158 174 147 156 181 186 151 186 178 170 196 208 169 161 194 203 182 187 189 180 195 190 168 193 194 217 127 225 246 208 256 221 137 120 111 97
188 195 210 209 208 206 217 206 218 174 149 156 148 173 182 180 173 173 187 199 198 192 174 191 228 110 168 158 156 177 212 185 85 60 65 222 281 274 217 237 205 151 141 129 108
172 186 208 206 200 187 235 248 182 174 126 156 167 176 177 184 169 184 182 197 190 195 125 206 141 210 190 133 104 173 150 170 199 210 229 236 248 220 253 106 140 177 165 137 114
157 175 241 194 187 225 215 200 175 249 142 161 151 142 191 176 192 188 187 193 188 187 180 152 148 87 125 204 188 173 197 201 159 180 185 240 252 205 219 199 178 187 157 143 129
119 188 159 163 186 235 205 139 325 184 166 116 97 115 167 174 181 197 194 204 200 169 193 174 155 181 202 250 260 220 217 192 195 217 232 228 253 173 208 192 174 161 147 143 134
128 126 176 164 204 214 89 223 193 210 170 124 142 174 158 161 176 181 202 188 166 174 180 172 195 155 301 334 2 204 208 207 208 88 201 212 258 7 150 144 157 155 157 145 130
120 154 267 196 201 197 189 235 194 192 164 143 136 150 134 146 53 181 184 150 170 193 168 167 178 218 226 227 153 203 202 201 200 219 235 223 246 250 182 177 177 168 160 152 143
142 219 189 191 210 196 184 206 220 184 154 155 87 168 156 145 159 171 189 128 187 189 178 174 222 218 241 217 195 211 207 201 207 221 219 242 232 244 218 192 194 167 163 163 161
146 204 220 187 168 197 165 215 201 258 161 183 143 189 182 152 180 189 174 168 178 196 183 182 234 185 241 228 205 223 218 211 213 225 232 242 251 239 98 110 157 182 174 170 163
199 190 250 161 173 177 197 153 189 153 340 148 125 135 185 212 179 194 178 170 167 170 191 173 203 173 235 207 180 236 231 227 215 224 220 228 240 146 201 192 184 179 175 164 157